This is the latest recevied weather packets stored in our database for station/object KF7PIZ. If no packets are shown the sender has not sent any weather packets the latest 1 day(s).
| Time | Temp. | Humidity | Pressure | Rain* | Wind** | Luminosity | Snow |
|---|---|---|---|---|---|---|---|
| 1778001386 | 11.67° C | 80% | 1014.6 hPa | 0 mm | 0 m/s | 201 W/m² | - |
| 1778001084 | 11.67° C | 80% | 1014.6 hPa | 0 mm | 0 m/s | 217 W/m² | - |
| 1778000781 | 11.11° C | 81% | 1014.4 hPa | 0 mm | 0 m/s | 165 W/m² | - |
| 1778000477 | 10.56° C | 84% | 1014.5 hPa | 0 mm | 0 m/s | 288 W/m² | - |
| 1778000172 | 10.56° C | 84% | 1014.5 hPa | 0 mm | 0 m/s | 165 W/m² | - |
| 1777999868 | 10° C | 88% | 1014.5 hPa | 0 mm | 0 m/s | 109 W/m² | - |
| 1777999564 | 10° C | 92% | 1014.4 hPa | 0 mm | 0 m/s | 129 W/m² | - |
| 1777999262 | 9.44° C | 93% | 1014.4 hPa | 0 mm | 0 m/s | 97 W/m² | - |
| 1777998960 | 9.44° C | 94% | 1014.8 hPa | 0 mm | 0 m/s | 101 W/m² | - |
| 1777998657 | 8.89° C | 95% | 1014.2 hPa | 0 mm | 0 m/s | 89 W/m² | - |
| 1777998355 | 8.89° C | 95% | 1014.1 hPa | 0 mm | 0 m/s | 71 W/m² | - |
| 1777998052 | 8.89° C | 96% | 1014.1 hPa | 0 mm | 0 m/s | 81 W/m² | - |
| 1777997749 | 8.89° C | 98% | 1014 hPa | 0 mm | 0 m/s | 83 W/m² | - |
| 1777997447 | 8.33° C | 98% | 1013.8 hPa | 0 mm | 0 m/s | 61 W/m² | - |
| 1777997144 | 8.33° C | 98% | 1013.9 hPa | 0 mm | 0 m/s | 71 W/m² | - |
| 1777996841 | 8.33° C | 98% | 1013.9 hPa | 0 mm | 0 m/s | 59 W/m² | - |
| 1777996539 | 8.33° C | 99% | 1014.1 hPa | 0 mm | 0 m/s | 48 W/m² | - |
| 1777996234 | 8.89° C | 99% | 1014.1 hPa | 0 mm | 0 m/s | 52 W/m² | - |
| 1777995930 | 8.89° C | 99% | 1013.9 hPa | 0 mm | 0 m/s | 52 W/m² | - |
| 1777995626 | 8.33° C | 99% | 1013.8 hPa | 0 mm | 0 m/s | 49 W/m² | - |
| 1777995324 | 8.33° C | 99% | 1013.9 hPa | 0 mm | 0 m/s | 43 W/m² | - |
| 1777995021 | 8.89° C | 99% | 1013.8 hPa | 0 mm | 0 m/s | 44 W/m² | - |
| 1777994718 | 8.89° C | 99% | 1013.7 hPa | 0 mm | 0 m/s | 48 W/m² | - |
| 1777994413 | 8.89° C | 99% | 1013.8 hPa | 0 mm | 0 m/s | 51 W/m² | - |
| 1777994109 | 8.89° C | 99% | 1013.7 hPa | 0 mm | 0 m/s | 49 W/m² | - |
* Rain latest hour (hover to see other rain measurements)
** Current wind speed in m/s (hover to see current wind gust speed)